Niagara Falls, NY

7:50 AM EST on January 18, 2018 (GMT -0500)
Niagara Falls International

Weather History for KIAG - November, 2012

Change the Weather History Date:

Sunday, November 11, 2012

  Actual Average Record
Temperature  
Mean Temperature 57 °F -  
Max Temperature 66 °F 46 °F 66 °F (2012)
Min Temperature 48 °F 31 °F 19 °F (2017)
Degree Days  
Heating Degree Days 8    
Growing Degree Days 7 (Base 50)    
Moisture  
Dew Point 38 °F    
Average Humidity 47    
Maximum Humidity 80    
Minimum Humidity 31    
Precipitation  
Precipitation 0.00 in - - ()
Sea Level Pressure  
Sea Level Pressure 30.19 in    
Wind  
Wind Speed 8 mph (SSW)    
Max Wind Speed 21 mph    
Max Gust Speed 28 mph    
Visibility 10 miles    
Events      
Averages and records for this station are not official NWS values.
T = Trace of Precipitation, MM = Missing Value Source: NWS Daily Summary

Daily Weather History Graph

Daily Weather History Graph

Search for Another Location

Airport or City:

Trip Planner

Search our weather history database for the weather conditions in past years. The results will help you decide how hot, cold, wet, or windy it might be!

Date:

Astronomy

Nov. 11, 2012 Rise Set
Actual Time 7:03 AM EST 4:55 PM EST
Civil Twilight 6:33 AM EST 5:25 PM EST
Nautical Twilight 5:59 AM EST 5:59 PM EST
Astronomical Twilight 5:25 AM EST 6:33 PM EST
Moon 4:12 AM EST (11/11) 3:20 PM EST (11/11)
Length of Visible Light 10h 52m
Length of Day
9h 51m
Waning Crescent, 7% of the Moon is Illuminated
Nov 11
Waning Crescent
Nov 13
New
Nov 20
First Quarter
Nov 28
Full
Dec 6
Last Quarter

Hourly Weather History & Observations

Time (EST) Temp. Dew Point Humidity Pressure Visibility Wind Dir Wind Speed Gust Speed Precip Events Conditions
12:53 AM 48.9 °F 43.0 °F 80% 30.16 in 9.0 mi Calm Calm - N/A   Overcast
1:53 AM 48.0 °F 42.1 °F 80% 30.17 in 9.0 mi SSW 3.5 mph - N/A   Mostly Cloudy
2:53 AM 52.0 °F 41.0 °F 66% 30.16 in 10.0 mi SSW 4.6 mph - N/A   Clear
3:53 AM 57.0 °F 39.0 °F 51% 30.17 in 10.0 mi SSW 9.2 mph - N/A   Clear
4:53 AM 55.0 °F 37.9 °F 53% 30.19 in 10.0 mi South 5.8 mph - N/A   Partly Cloudy
5:53 AM 55.0 °F 37.9 °F 53% 30.20 in 10.0 mi SSW 6.9 mph - N/A   Partly Cloudy
6:53 AM 55.0 °F 39.0 °F 55% 30.23 in 10.0 mi SW 8.1 mph - N/A   Mostly Cloudy
7:01 AM 55.4 °F 39.2 °F 54% 30.21 in 10.0 mi SW 6.9 mph - N/A   Mostly Cloudy
7:53 AM 57.9 °F 39.0 °F 49% 30.23 in 10.0 mi SSW 10.4 mph - N/A   Scattered Clouds
8:53 AM 63.0 °F 37.9 °F 40% 30.24 in 10.0 mi SW 15.0 mph - N/A   Scattered Clouds
9:53 AM 64.0 °F 37.9 °F 38% 30.24 in 10.0 mi SSW 19.6 mph 27.6 mph N/A   Mostly Cloudy
10:53 AM 66.0 °F 37.9 °F 36% 30.24 in 10.0 mi SSW 16.1 mph - N/A   Mostly Cloudy
11:53 AM 66.0 °F 37.0 °F 34% 30.23 in 10.0 mi SW 20.7 mph 26.5 mph N/A   Mostly Cloudy
12:53 PM 66.9 °F 36.0 °F 32% 30.21 in 10.0 mi SW 20.7 mph - N/A   Overcast
1:53 PM 66.9 °F 35.1 °F 31% 30.19 in 10.0 mi SW 19.6 mph 25.3 mph N/A   Overcast
2:53 PM 66.0 °F 37.9 °F 36% 30.19 in 10.0 mi SW 8.1 mph - N/A   Overcast
3:53 PM 64.0 °F 37.0 °F 37% 30.19 in 10.0 mi SSW 11.5 mph - N/A   Mostly Cloudy
4:53 PM 60.1 °F 37.0 °F 42% 30.20 in 10.0 mi South 5.8 mph - N/A   Mostly Cloudy
5:53 PM 57.9 °F 37.0 °F 46% 30.19 in 10.0 mi South 8.1 mph - N/A   Mostly Cloudy
6:53 PM 54.0 °F 39.0 °F 57% 30.18 in 10.0 mi South 6.9 mph - N/A   Mostly Cloudy
7:53 PM 57.0 °F 39.0 °F 51% 30.17 in 10.0 mi SSE 9.2 mph - N/A   Scattered Clouds
8:53 PM 55.9 °F 37.0 °F 49% 30.17 in 10.0 mi SSE 9.2 mph - N/A   Scattered Clouds
9:53 PM 60.1 °F 37.0 °F 42% 30.15 in 10.0 mi South 12.7 mph - N/A   Mostly Cloudy
10:53 PM 61.0 °F 35.1 °F 38% 30.12 in 10.0 mi South 13.8 mph 23.0 mph N/A   Mostly Cloudy
11:53 PM 61.0 °F 34.0 °F 36% 30.11 in 10.0 mi South 13.8 mph 24.2 mph N/A   Clear